Voltar ao catálogo

STARLINK-35680

AtivoComunicaçõesVLEO
NORAD 66610·PAYLOAD·🇺🇸 United States

Lançado Nov 22, 2025 de Cape Canaveral Space Force Station

Loading…

Próximas Passagens (próximas 24 horas)

TLE

AtualizadoSource: CelesTrak SupGP

Época: Sep 14, 2026, 22:45 UTC

1 66610C 25270Y   26257.94840278  .00058272  00000+0  21105-2 0  2570
2 66610  43.0006  67.3538 0001460 271.5493 332.8158 15.27550578    14

Acompanhe STARLINK-35680 em tempo real com AllMySat

Download on the App Store